EW5728 Weather Reports


time (UTC)temp
C
wind
direction
speed
KPH
gust
KPH
rain 1hr
cm
rain 24hr
cm
rain mn
cm
humidity
%
barometer
mb
20260504202041 21 201 14.5 24.1 0.00 0.00 0.00 44 1015.4
20260504201537 21 195 14.5 24.1 0.00 0.00 0.00 46 1015.4
20260504201035 21 175 14.5 22.5 0.00 0.00 0.00 45 1015.4
20260504200534 21 212 14.5 22.5 0.00 0.00 0.00 44 1015.5
20260504200034 21 188 16.1 22.5 0.00 0.00 0.00 46 1015.5
20260504195531 21 202 14.5 24.1 0.00 0.00 0.00 46 1015.6
20260504195032 21 200 16.1 24.1 0.00 0.00 0.00 49 1015.6
20260504194531 21 164 14.5 22.5 0.00 0.00 0.00 45 1015.7
20260504194030 21 202 16.1 20.9 0.00 0.00 0.00 47 1015.8
20260504193530 21 174 12.9 24.1 0.00 0.00 0.00 45 1015.8
20260504193029 21 186 12.9 24.1 0.00 0.00 0.00 46 1016.0
20260504192527 20 195 14.5 22.5 0.00 0.00 0.00 49 1016.0
20260504192027 20 191 17.7 22.5 0.00 0.00 0.00 53 1016.1
20260504191526 20 202 16.1 24.1 0.00 0.00 0.00 46 1016.3
20260504191025 20 192 14.5 24.1 0.00 0.00 0.00 47 1016.4
20260504190524 20 193 14.5 24.1 0.00 0.00 0.00 49 1016.4
20260504190023 20 202 14.5 24.1 0.00 0.00 0.00 49 1016.5
20260504185521 20 176 17.7 27.4 0.00 0.00 0.00 48 1016.6
20260504185021 20 199 16.1 27.4 0.00 0.00 0.00 46 1016.6
20260504184519 20 203 16.1 24.1 0.00 0.00 0.00 48 1016.6
20260504184019 20 209 16.1 29.0 0.00 0.00 0.00 48 1016.7
20260504183518 20 193 16.1 29.0 0.00 0.00 0.00 47 1016.8
20260504183018 20 198 19.3 25.7 0.00 0.00 0.00 46 1016.9
20260504182517 20 184 14.5 25.7 0.00 0.00 0.00 45 1016.9
20260504182016 20 208 11.3 27.4 0.00 0.00 0.00 45 1017.0
20260504181516 20 195 16.1 25.7 0.00 0.00 0.00 46 1017.0
20260504181015 19 214 17.7 24.1 0.00 0.00 0.00 47 1017.0
20260504180514 19 190 17.7 24.1 0.00 0.00 0.00 46 1017.1
20260504180016 19 157 14.5 25.7 0.00 0.00 0.00 46 1017.2
20260504175511 19 197 14.5 25.7 0.00 0.00 0.00 46 1017.3
20260504175011 19 173 12.9 24.1 0.00 0.00 0.00 46 1017.3
20260504174509 18 199 17.7 22.5 0.00 0.00 0.00 48 1017.4
20260504174008 18 207 17.7 22.5 0.00 0.00 0.00 48 1017.5
20260504173508 18 191 16.1 19.3 0.00 0.00 0.00 49 1017.5
20260504173006 18 205 12.9 19.3 0.00 0.00 0.00 51 1017.4
20260504172505 18 201 11.3 16.1 0.00 0.00 0.00 51 1017.3
20260504172004 18 210 11.3 16.1 0.00 0.00 0.00 54 1017.5
20260504171504 18 208 12.9 14.5 0.00 0.00 0.00 51 1017.5
20260504171003 18 209 11.3 17.7 0.00 0.00 0.00 48 1017.5
20260504170503 18 198 11.3 17.7 0.00 0.00 0.00 50 1017.5
20260504151038 14 212 11.3 14.5 0.00 0.00 0.00 71 1019.2
20260504150534 14 193 8.0 12.9 0.00 0.00 0.00 71 1019.2
20260504141025 13 225 14.5 17.7 0.00 0.00 0.00 67 1019.3
20260504140524 13 220 16.1 17.7 0.00 0.00 0.00 67 1019.2
20260504130517 13 174 14.5 20.9 0.00 0.00 0.00 69 1019.6
20260504110508 13 203 20.9 30.6 0.00 0.00 0.00 73 1020.1
20260504100604 13 205 22.5 29.0 0.00 0.00 0.00 71 1020.0
20260504100107 13 214 17.7 25.7 0.00 0.00 0.00 75 1020.2
20260504090104 13 212 14.5 24.1 0.00 0.00 0.00 72 1020.0
20260504081550 13 198 12.9 27.4 0.00 0.00 0.00 77 1020.0
20260504081049 13 160 11.3 25.7 0.00 0.00 0.00 78 1019.9
20260504080548 13 193 12.9 19.3 0.00 0.00 0.00 79 1019.9
20260504050525 12 122 0.0 9.7 0.00 0.00 0.00 74 1020.2
20260504050025 12 108 1.6 12.9 0.00 0.00 0.00 72 1020.3
20260504045524 13 146 4.8 17.7 0.00 0.00 0.00 72 1020.4
20260504045024 13 212 9.7 19.3 0.00 0.00 0.00 72 1020.3
20260504044534 13 206 16.1 19.3 0.00 0.00 0.00 72 1020.3
20260504044022 13 173 9.7 20.9 0.00 0.00 0.00 72 1020.4
20260504043521 13 223 14.5 20.9 0.00 0.00 0.00 72 1020.4
20260504043023 12 214 9.7 16.1 0.00 0.00 0.00 76 1020.4
20260504042518 12 203 6.4 12.9 0.00 0.00 0.00 75 1020.3
20260504042019 12 200 6.4 12.9 0.00 0.00 0.00 75 1020.4
20260504041517 12 156 6.4 12.9 0.00 0.00 0.00 73 1020.4
20260504041016 12 152 4.8 12.9 0.00 0.00 0.00 73 1020.4
20260504040519 12 188 8.0 12.9 0.00 0.00 0.00 73 1020.3
20260504040013 12 205 4.8 11.3 0.00 0.00 0.00 73 1020.3
20260504035513 11 134 3.2 11.3 0.00 0.00 0.00 73 1020.3
20260504035012 11 198 3.2 9.7 0.00 0.00 0.00 74 1020.2
20260504034514 11 193 1.6 8.0 0.00 0.00 0.00 73 1020.2
20260504034012 12 148 3.2 8.0 0.00 0.00 0.00 74 1020.1
20260504033512 11 113 1.6 6.4 0.00 0.00 0.00 73 1020.1
20260504033012 11 136 1.6 4.8 0.00 0.00 0.00 74 1020.1
20260504032512 11 181 0.0 3.2 0.00 0.00 0.00 75 1020.0
20260504032014 11 100 0.0 3.2 0.00 0.00 0.00 75 1019.9
20260504031512 11 99 0.0 6.4 0.00 0.00 0.00 74 1019.9
20260504031012 11 134 0.0 6.4 0.00 0.00 0.00 73 1019.9
20260504030510 11 121 0.0 4.8 0.00 0.00 0.00 73 1019.8
20260504030010 11 91 0.0 6.4 0.00 0.00 0.00 72 1019.8
20260504025510 11 154 1.6 6.4 0.00 0.00 0.00 72 1019.9
20260504025013 11 116 1.6 3.2 0.00 0.00 0.00 72 1019.9
20260504024511 11 104 0.0 3.2 0.00 0.00 0.00 72 1019.8
20260504024012 11 98 0.0 3.2 0.00 0.00 0.00 73 1019.8
20260504023510 11 103 0.0 3.2 0.00 0.00 0.00 73 1019.8
20260504023010 11 96 0.0 4.8 0.00 0.00 0.00 72 1019.9
20260504022512 11 151 0.0 4.8 0.00 0.00 0.00 72 1019.9
20260504022009 11 143 1.6 4.8 0.00 0.00 0.00 72 1019.9
20260504021511 11 110 0.0 3.2 0.00 0.00 0.00 72 1019.9
20260504021009 12 96 0.0 4.8 0.00 0.00 0.00 71 1019.9
20260504020508 12 100 1.6 4.8 0.00 0.00 0.00 71 1019.9
20260504020015 12 122 3.2 9.7 0.00 0.00 0.00 70 1019.9
20260504015508 13 165 1.6 9.7 0.00 0.00 0.00 69 1019.8
20260504015007 13 134 3.2 8.0 0.00 0.00 0.00 71 1019.8
20260504014507 13 210 1.6 9.7 0.00 0.00 0.00 68 1019.7
20260504014006 13 195 3.2 9.7 0.00 0.00 0.00 65 1019.7
20260504013506 15 231 3.2 8.0 0.00 0.00 0.00 66 1019.6
20260504013010 15 224 4.8 8.0 0.00 0.00 0.00 67 1019.7
20260504012511 15 231 4.8 8.0 0.00 0.00 0.00 65 1019.6
20260504012006 15 239 4.8 9.7 0.00 0.00 0.00 63 1019.5
20260504011507 15 248 4.8 11.3 0.00 0.00 0.00 61 1019.5
20260504011009 15 243 8.0 11.3 0.00 0.00 0.00 61 1019.5
20260504010507 15 243 6.4 9.7 0.00 0.00 0.00 63 1019.5
20260504010005 15 242 6.4 9.7 0.00 0.00 0.00 61 1019.5
20260504005504 15 239 6.4 9.7 0.00 0.00 0.00 65 1019.5
20260504005005 15 249 8.0 9.7 0.00 0.00 0.00 57 1019.5
20260504004504 15 262 6.4 9.7 0.00 0.00 0.00 55 1019.5
20260504004004 15 262 6.4 9.7 0.00 0.00 0.00 54 1019.4
20260504003503 15 258 6.4 9.7 0.00 0.00 0.00 53 1019.3
20260504003003 15 254 6.4 11.3 0.00 0.00 0.00 55 1019.2
20260504002503 15 242 8.0 11.3 0.00 0.00 0.00 52 1019.2
20260504002003 15 257 9.7 11.3 0.00 0.00 0.00 51 1019.1
20260504001503 15 253 8.0 11.3 0.00 0.00 0.00 51 1019.0
20260504001006 15 257 8.0 12.9 0.00 0.00 0.00 54 1019.0
20260504000504 15 256 9.7 12.9 0.00 0.00 0.00 51 1019.0
20260504000002 15 250 8.0 11.3 0.00 0.00 0.00 55 1018.9
20260503235501 15 276 8.0 11.3 0.00 0.00 0.00 52 1018.8
20260503235001 15 271 8.0 12.9 0.00 0.00 0.00 49 1018.7
20260503234503 15 272 9.7 12.9 0.00 0.00 0.00 47 1018.7
20260503234001 16 285 8.0 12.9 0.00 0.00 0.00 53 1018.6
20260503233502 16 283 8.0 12.9 0.00 0.00 0.00 45 1018.6
20260503233106 16 281 8.0 12.9 0.00 0.00 0.00 44 1018.6
20260503232601 16 300 6.4 12.9 0.00 0.00 0.00 46 1018.6
20260503232100 16 287 9.7 14.5 0.00 0.00 0.00 50 1018.6
20260503231600 16 277 9.7 17.7 0.00 0.00 0.00 44 1018.6
20260503231103 16 276 11.3 17.7 0.00 0.00 0.00 42 1018.6
20260503230600 16 293 12.9 17.7 0.00 0.00 0.00 48 1018.7
20260503225558 16 299 9.7 17.7 0.00 0.00 0.00 48 1018.7
20260503225102 16 281 12.9 17.7 0.00 0.00 0.00 42 1018.6
20260503224558 16 288 12.9 20.9 0.00 0.00 0.00 45 1018.7
20260503224058 16 274 14.5 20.9 0.00 0.00 0.00 46 1018.8
20260503223557 15 288 14.5 22.5 0.00 0.00 0.00 40 1018.7
20260503223057 15 300 17.7 22.5 0.00 0.00 0.00 44 1018.5
20260503222556 15 295 14.5 20.9 0.00 0.00 0.00 47 1018.6
20260503222055 15 271 12.9 19.3 0.00 0.00 0.00 44 1018.6
20260503221555 15 275 11.3 16.1 0.00 0.00 0.00 46 1018.8
20260503221055 15 289 11.3 17.7 0.00 0.00 0.00 44 1018.8
20260503220555 15 263 11.3 17.7 0.00 0.00 0.00 49 1018.8
20260503220054 15 273 9.7 20.9 0.00 0.00 0.00 49 1018.8
20260503215554 15 283 14.5 22.5 0.00 0.00 0.00 47 1018.8
20260503215052 15 291 12.9 22.5 0.00 0.00 0.00 41 1018.7
20260503214601 15 283 19.3 22.5 0.00 0.00 0.00 45 1018.7
20260503214052 15 279 12.9 24.1 0.00 0.00 0.00 49 1018.7
20260503213551 15 293 14.5 17.7 0.00 0.00 0.00 46 1018.8
20260503213052 15 289 11.3 16.1 0.00 0.00 0.00 47 1018.8
20260503212550 15 284 11.3 17.7 0.00 0.00 0.00 50 1018.8
20260503212049 15 274 11.3 29.0 0.00 0.00 0.00 49 1018.7
20260503211554 15 285 16.1 29.0 0.00 0.00 0.00 44 1018.7
20260503211049 15 296 14.5 20.9 0.00 0.00 0.00 46 1018.7
20260503210548 15 287 16.1 20.9 0.00 0.00 0.00 48 1018.7
20260503210047 14 288 12.9 35.4 0.00 0.00 0.00 47 1018.7
20260503205547 14 310 19.3 35.4 0.00 0.00 0.00 49 1018.8
20260503205047 14 286 19.3 25.7 0.00 0.00 0.00 47 1018.8
20260503204554 14 284 20.9 25.7 0.00 0.00 0.00 49 1018.9
20260503204045 14 293 12.9 25.7 0.00 0.00 0.00 47 1018.9
20260503203544 14 284 17.7 25.7 0.00 0.00 0.00 47 1018.8
20260503203049 14 279 11.3 32.2 0.00 0.00 0.00 47 1019.0
20260503202543 13 302 14.5 32.2 0.00 0.00 0.00 45 1019.0